Flag for Luxembourg Weather past 2 weeks in Ettelbruck, Luxembourg

Now
51 °F

Low clouds.


Feels Like: 51 °F
Forecast: 44 / 55 °F
Wind: 2 mph from South

Location: Luxembourg / Luxembourg

Current Time: Apr 26, 2015 at 8:58:57 AM

Latest Report: Apr 26, 2015 at 8:00 AM


Visibility: 2 mi

Pressure: 29.80 "Hg

Humidity: 100%

Dew point: 51 °F

Location of EttelbruckLocation

Historic Weather in Ettelbruck — Graph

°F

Ettelbruck temperature yesterday

Maximum temperature yesterday: 57 °F (at 7:00 PM)
Minimum temperature yesterday: 50 °F (at 10:00 AM)
Average temperature yesterday: 54 °F

Past Weeks' High & Low Weather Summary

 TemperatureHumidityPressure
High74 °F (Apr 15, 6:00 PM)99% (Apr 12, 8:00 AM)30.49 "Hg (Apr 12, 8:00 AM)
Low39 °F (Apr 18, 7:00 AM)22% (Apr 21, 6:00 PM)29.80 "Hg (Apr 25, 5:00 PM)
Average55 °F58%30.16 "Hg
* Reported Apr 11 7:00 AM — Apr 26 7:00 AM, Ettelbruck, Weather by CustomWeather, © 2015

Note: Actual official high and low records may vary slightly from our data, if they occured in-between our weather recording intervals... More about our weather records

Advertising

Ettelbruck weather history for previous 24 hours

 ConditionsComfort  
Time TempWeatherWind HumidityBarometerVisibility
7:00 AM
Sun, Apr 26
50 °FLow clouds.2 mph99%29.80 "Hg4 mi
6:00 AM51 °FSprinkles. Overcast.3 mph98%29.80 "Hg6 mi
4:00 AM52 °FCool.2 mph99%29.81 "Hg6 mi
3:00 AM53 °FCool.3 mph99%29.82 "Hg4 mi
2:00 AM52 °FLow clouds.2 mph99%29.83 "Hg9 mi
1:00 AM52 °FOvercast.2 mph99%29.83 "Hg9 mi
12:00 AM52 °FSprinkles. Passing clouds.2 mph97%29.84 "Hg9 mi
10:00 PM
Sat, Apr 25
52 °FPassing clouds.2 mph90%29.84 "Hg16 mi
9:00 PM55 °FPassing clouds.2 mph86%29.82 "Hg16 mi
8:00 PM56 °FPartly sunny.3 mph79%29.81 "Hg16 mi
7:00 PM57 °FOvercast.5 mph75%29.80 "Hg19 mi
6:00 PM56 °FOvercast.3 mph81%29.81 "Hg19 mi
5:00 PM57 °FOvercast.5 mph78%29.80 "Hg19 mi
4:00 PM57 °FOvercast.5 mph83%29.81 "Hg16 mi
3:00 PM56 °FSprinkles. Overcast.6 mph80%29.82 "Hg12 mi
2:00 PM56 °FOvercast.5 mph88%29.82 "Hg7 mi
1:00 PM55 °FOvercast.3 mph87%29.83 "Hg10 mi
12:00 PM55 °FOvercast.5 mph93%29.83 "Hg11 mi
11:00 AM52 °FLight rain. Overcast.2 mph99%29.84 "Hg2 mi
10:00 AM50 °FLight rain. Low clouds.1 mph98%29.85 "Hg2 mi
9:00 AM51 °FLight rain. Overcast.1 mph94%29.85 "Hg4 mi
8:00 AM51 °FLight rain. Overcast.2 mph91%29.84 "Hg4 mi
Weather by CustomWeather, © 2015

See weather overviewHow to use our weather pages